Hourly Data Report for October 04, 2014

All times are specified in Local Standard Time (LST). Add 1 hour to adjust for Daylight Saving Time where and when it is observed.

KITCHENER/WATERLOO
ONTARIO

43°27'39.000" N
80°22'43.000" W
321.60 m
6144239
71368
YKF

Download Data

Hourly Data (October 2014)
Hourly Data Report for October 4, 2014
Temp Definition
°C
Dew Point Temp Definition
°C
Rel Hum Definition
%
Wind Dir Definition
10's deg

Wind Spd Definition
km/h
Visibility Definition
km
Stn Press Definition
kPa
Hmdx Definition


Wind Chill Definition


Weather Definition


TIME
00:00 Legend Double Dagger 12.5 11.4 93 27 15 16.1 96.29     Rain
01:00 Legend Double Dagger 11.8 10.7 93 26 18 16.1 96.26     Rain
02:00 Legend Double Dagger 11.1 10.0 93 28 13 16.1 96.22     Rain
03:00 Legend Double Dagger 10.0 9.0 94 25 11 16.1 96.18     LegendNANA
04:00 Legend Double Dagger 9.9 9.1 95 20 8 14.5 96.16     LegendNANA
05:00 Legend Double Dagger 10.1 8.9 92 24 24 12.9 96.22     Rain
06:00 Legend Double Dagger 8.3 6.8 90 25 21 16.1 96.27     Rain
07:00 Legend Double Dagger 7.9 5.9 87 25 26 16.1 96.28     LegendNANA
08:00 Legend Double Dagger 8.3 6.3 87 23 18 16.1 96.32     LegendNANA
09:00 Legend Double Dagger 8.3 4.9 79 28 26 16.1 96.30     LegendNANA
10:00 Legend Double Dagger 8.6 5.2 79 26 22 16.1 96.34     LegendNANA
11:00 Legend Double Dagger 6.8 4.1 83 27 28 16.1 96.38     Rain
12:00 Legend Double Dagger 8.1 4.8 80 26 21 16.1 96.40     LegendNANA
13:00 Legend Double Dagger 9.5 3.1 64 24 30 16.1 96.36     LegendNANA
14:00 Legend Double Dagger 10.4 2.2 57 24 28 16.1 96.36     LegendNANA
15:00 Legend Double Dagger 8.8 2.2 63 24 28 16.1 96.38     LegendNANA
16:00 Legend Double Dagger 7.9 2.4 68 25 26 16.1 96.45     LegendNANA
17:00 Legend Double Dagger 6.9 2.5 73 22 17 16.1 96.48     LegendNANA
18:00 Legend Double Dagger 6.0 1.7 74 24 17 16.1 96.53     LegendNANA
19:00 Legend Double Dagger 6.0 2.5 78 29 11 16.1 96.58     LegendNANA
20:00 Legend Double Dagger 4.3 2.3 87 22 8 16.1 96.59     LegendNANA
21:00 Legend Double Dagger 3.6 1.8 88 20 8 16.1 96.62     LegendNANA
22:00 Legend Double Dagger 2.8 1.5 91 19 9 16.1 96.60     LegendNANA
23:00 Legend Double Dagger 3.4 1.1 85 23 22 16.1 96.55     LegendNANA

Notes on Data Quality.

Legend

  • E = Estimated
  • M = Missing
  • NA = Not Available
  • ‡ = Partner data that is not subject to review by the National Climate Archives
Date modified: